Regional Weather Roundup
Issued by NWS Albany, NY

Home | Current Version | Previous Version | Text Only | Print | Product List | Glossary On
Versions: 1 2 3 4 5 6 7 8 9 10 11 12 13 14 15 16 17 18 19 20 21 22 23 24 25 26 27
000
ASUS41 KALY 121910
RWRALY

NEW YORK STATE HOURLY WEATHER ROUNDUP
NATIONAL WEATHER SERVICE ALBANY NY
200 PM EST TUE DEC 12 2017

NOTE: "FAIR" INDICATES FEW OR NO CLOUDS BELOW 12,000 FEET WITH NO
SIGNIFICANT WEATHER AND/OR NO OBSTRUCTIONS TO VISIBILITY.

NYZ032-033-038>043-046>054-057>066-NYZ062>081-082-084-122000-
EAST


CITY           SKY/WX    TMP DP  RH WIND       PRES   REMARKS
ALBANY         LGT RAIN  35  33  92 CALM      29.43F FOG
GLENS FALLS    LGT SNOW  31  31 100 CALM      29.43F FOG
POUGHKEEPSIE   LGT RAIN  39  37  92 CALM      29.43F FOG
NEWBURGH       DRIZZLE   37  37 100 CALM      29.44F FOG
MONTGOMERY     LGT RAIN  36  35  96 CALM      29.42F VSB 3/4
WHITE PLAINS   LGT RAIN  42  38  85 W9        29.41F
ISLIP          LGT RAIN  49  45  86 SW10      29.41F
NEW YORK CITY  LGT RAIN  47  35  63 W13       29.43F
CENTRAL PARK   CLOUDY    45  35  68 VRB5      29.46F
$$

NYZ005>009-017-018-044>046-055-056-122000-
CENTRAL


CITY           SKY/WX    TMP DP  RH WIND       PRES   REMARKS
FULTON         SNOW      30  27  88 W16G25    29.48R VSB 1/2 WCI  19
SYRACUSE       LGT SNOW  30  27  88 W29G37    29.48R BLWGSNOWWCI  15
ROME           LGT SNOW  33  31  92 W13       29.45S FOG     WCI  24
ELMIRA         CLOUDY    32  20  61 NW15G28   29.49R WCI  22
BINGHAMTON     CLOUDY    32  28  85 NW10      29.40S WCI  24
$$

NYZ026>034-041>043-087-122000-
NORTH


CITY           SKY/WX    TMP DP  RH WIND       PRES   REMARKS
WATERTOWN      LGT SNOW  24  22  91 N7        29.44R VSB 1   WCI  16
FORT DRUM      NOT AVBL
OGDENSBURG     LGT SNOW  23  19  86 NE6       29.44S WCI  16
MASSENA        LGT SNOW  20  17  88 NE8       29.46F FOG     WCI  10
SARANAC LAKE   LGT SNOW  30  29  96 CALM      29.33F FOG
PLATTSBURGH    CLOUDY    34  30  85 SE10      29.43F WCI  26
$$

NYZ001>004-010>016-019>021-085-122000-
WEST


CITY           SKY/WX    TMP DP  RH WIND       PRES   REMARKS
NIAGARA FALLS  PTSUNNY   24  12  60 W23       29.59R WCI   9
BUFFALO        FLURRIES  24  14  65 W16G23    29.58R WCI  11
DUNKIRK        LGT SNOW  22  15  75 W18G33    29.64R VSB 1   WCI   7
JAMESTOWN      SNOW      19  16  86 W16       29.57S VSB 1/2 WCI   5
WELLSVILLE     LGT SNOW  23  16  74 W20G26    29.49R VSB 1   WCI   8
ROCHESTER      FLURRIES  27  20  75 W17G25    29.53S WCI  14
PENN YAN       CLOUDY    29  16  58 W12G21    29.50R WCI  19
$$

             KEY
       WCI = WIND CHILL INDEX
       VSB = VISIBILITY
       HX  = HEAT INDEX
$$




USA.gov is the U.S. government's official web portal to all federal, state and local government web resources and services.